CZ-2C DEB (55847 NORAD) Tracking and Keplerian Element Data

This shows tracking and keplerian element data for the satellite.

Feedback or suggestion? Click here.




ElementValue
Catalog55847
NameCZ-2C DEB
Epoch Orbit193
Epoch Day84.93171045
Epoch Year2023
RAAN158.5872
Inclination97.6545
Eccentricity0.0105514
Argument of Perigee178.6119
Mean Anonmoly181.4759
Mean Motion15.11522147
Decay Rate0.00117908
L11 55847U 23032D 23084.93171045 .00117908 00000+0 60042-2 0 9995
L22 55847 97.6545 158.5872 0105514 178.6119 181.4759 15.11522147 1939



Live tracking and technical data element details for CZ-2C DEB (NORAD 55847). CZ-2C DEB can be tracked NOW for your location showing map with azimuth and elevation plus other details from your city location.







IsCatalogInMostPopularTable: catalog: 55847, numindb: 8
Update: records affected: 1



GetName: 55847 CZ-2C DEB

Hit Count: updated at: Tue, 06 Jun 2023 03:00:07 GMT